Powrót do katalogu

SL-12 DEB

AktywnyHEO
NORAD 25804·DEBRIS·🇷🇺 Russia

Wystrzelony Sep 16, 1987 z Baikonur Cosmodrome

Loading…

Następne Przeloty (najbliższe 24 godziny)

TLE

ŚwieżeSource: Space-Track

Epoka: Sep 13, 2026, 21:08 UTC

1 25804U 87079P   26256.88074457  .00026873  00000-0  69866-2 0  9997
2 25804  64.8803 139.4444 3581349  53.0506 334.7740  8.02931660636548

Śledź SL-12 DEB w czasie rzeczywistym z AllMySat

Download on the App Store